Columbia Metropolitan

Airport
ICAO code: 
KCAE
Summary
ICAO Region: 
NAM
Territory: 
Location: 
Columbia, South Carolina,
Coordinates: 
Aerial View: 
33° 56' 19.683" N, 81° 7' 10.197" W
Metar
Observation
KCAE 240556Z 25004KT 10SM CLR 04/M04 A2991 RMK AO2 SLP127 T00391039 10078 20033 55002
Station
Columbia, Columbia Metropolitan Airport
Date/Time
2022-01-24 05:56:00
Wind direction
250°
Wind speed
04 kts
Lowest cloud amount
n/a
Temperature
3.9°C
Dew point
-3.9°C
Humidity
56%
Weather condition
n/a

Description

Columbia Metropolitan Airport is the main airport for Columbia, South Carolina. The airport lies 8 km southwest of Columbia's central business district, in Lexington County.

Climatology

Humid “subtropical” climate (Köppen climate classification Cfa) - characterized by hot, humid summers and cool winters. Significant amounts of precipitation occur in all seasons in most areas. Winter rainfall (and sometimes snowfall) is associated with large storms that the westerlies steer from west to east. Most summer rainfall occurs during thunderstorms and occasional tropical storms (hurricanes).

Runways

Designator Length Width Surface Rops
5/23 2439 46 PEM Yes/Yes
11/29 2622 46 ASP Yes/Yes
Airport map: 
Aerial View: 

Accidents and Serious Incidents at or in the vicinity of KCAE

SKYbrary Partners:

Safety knowledge contributed by: